STARLINK-32407, 62172

Orbit data source: Space-Track

STARLINK-32407, 62172 is a payload satellite owned by SpaceX/Seattle (US) in LEO that was launched on Sat, 30 Nov 2024 UTC via an FALCON 9 launch vehicle from the Air Force Western Test Range (AFWTR). Payload-class satellites include a variety of spacecraft equipped with specific instruments for various scientific and technological missions. These include communications satellites like Starlink; space stations such as the ISS; scientific satellites like the Hubble; Earth observation satellites from companies like Planet Labs, Umbra, and HawkEye 360; GPS; miniature CubeSats for education and research; and military/defense satellites.

Loading next visibility...
Identifier
62172, 2024-225K
Orbit
LEO
Country
Flag of USUS
Related business
Manufacturer
SpaceX/Seattle
Mission
Operational Commercial Communications
Bus & Motor
STARLINK V2M, Unknown motor
Mass
730 kg wet, ~700 kg dry
Launch date (UTC)
2024-11-30 (1 year ago)
Launch vehicle
FALCON 9
Launch site
Air Force Western Test Range (AFWTR)
Object type
Payload
Rocket body
Debris
Shape & HBR
Box + 2 Pan, 17.7 m
Radar Cross Section
33.884 m², Large (>1 m²)

Expand to show TLE details & history
Last TLE update: 13 hours ago

TLE from 13 hours ago
0 STARLINK-32407
1 62172U 24225K   26062.73084194  .01302933  00000-0  95227-1 0  9992
2 62172  70.0031 179.4285 0009308 309.4661  50.5675 15.00402946 68986
Epoch: 2026-03-03T17:32Z
TLE epoch observation values (Epoch: 2026-03-03T17:32:24.743Z)
Latitude
-0.00003°
Longitude
114.81969°
Altitude
563.977 km
Speed
7.582 km/s
True Right ascension
11h 57m 42s
True Declination
0° 00' 00"
Sunlit
Object was in full shadow at epoch
Visualization orbit readout
Latitude
Unknown
Longitude
Unknown
Altitude
Unknown
Speed
Unknown
Apparent Right ascension
Unknown
Apparent Declination
Unknown
Sunlit
N/A
Visualization observer readout
Local Sidereal Time
10:02:12
Azimuth
Unknown
Elevation
Unknown
Doppler factor
Unknown
Orbital elements
Apogee altitude
570.06 km
Perigee altitude
557.137 km
Semi-major axis
6,941.736 km
Eccentricity
0.00093
Inclination
70.0031°
RAAN
179.4285°
Arg. of periapsis
309.4661°
True anomaly
50.64994°
Mean anomaly
50.5675°
Eccentric anomaly
50.60872°
Mean motion
3.75268 °/min
Orbital period
95.93 mins
BSTAR
0.095227
Loading maneuver chart data...
Computing Atmospheric mass density...
Loading historical data...
Loading historical data...
Loading historical data...
Loading historical data...
Loading historical data...
Loading historical data...
Loading historical data...

Documentation

Showing up to 5 results
|